Time,TemperatureF,DewpointF,PressureIn,WindDirection,WindDirectionDegrees,WindSpeedMPH,WindSpeedGustMPH,Humidity,HourlyPrecipIn,Conditions,Clouds,dailyrainin,SoftwareType,DateUTC
2013-11-28 00:01:00,12.2,9.3,27.98,East,80,3.0,3.0,88,0.00,,---,0.00,VWS V14.01,2013-11-28 06:01:00,
2013-11-28 00:06:00,12.1,9.2,27.98,East,84,2.0,2.0,88,0.00,,---,0.00,VWS V14.01,2013-11-28 06:06:00,
2013-11-28 00:11:00,12.1,9.2,27.98,East,90,2.0,3.0,88,0.00,,---,0.00,VWS V14.01,2013-11-28 06:11:00,
2013-11-28 00:16:00,11.9,9.0,27.98,East,91,1.0,5.0,88,0.00,,---,0.00,VWS V14.01,2013-11-28 06:16:00,
2013-11-28 00:22:00,11.9,9.0,27.98,East,88,3.0,3.0,88,0.00,,---,0.00,VWS V14.01,2013-11-28 06:22:00,
2013-11-28 00:27:00,11.8,8.9,27.98,East,86,0.0,3.0,88,0.00,,---,0.00,VWS V14.01,2013-11-28 06:27:00,
2013-11-28 00:32:00,11.7,8.8,27.97,East,92,1.0,2.0,88,0.00,,---,0.00,VWS V14.01,2013-11-28 06:32:00,
2013-11-28 00:37:00,11.7,8.8,27.97,ESE,105,0.0,5.0,88,0.00,,---,0.00,VWS V14.01,2013-11-28 06:37:00,
2013-11-28 00:42:00,11.6,8.7,27.97,ESE,104,2.0,2.0,88,0.00,,---,0.00,VWS V14.01,2013-11-28 06:42:00,
2013-11-28 00:48:00,11.6,8.7,27.98,SE,126,3.0,3.0,88,0.00,,---,0.00,VWS V14.01,2013-11-28 06:48:00,
2013-11-28 00:53:00,11.5,8.6,27.98,East,92,1.0,1.0,88,0.00,,---,0.00,VWS V14.01,2013-11-28 06:53:00,
2013-11-28 00:58:00,11.5,8.6,27.98,ENE,76,0.0,2.0,88,0.00,,---,0.00,VWS V14.01,2013-11-28 06:58:00,
2013-11-28 01:03:00,11.4,8.5,27.97,ENE,77,2.0,2.0,88,0.00,,---,0.00,VWS V14.01,2013-11-28 07:03:00,
2013-11-28 01:08:00,11.4,8.5,27.97,East,98,0.0,2.0,88,0.00,,---,0.00,VWS V14.01,2013-11-28 07:08:00,
2013-11-28 01:14:00,11.4,8.5,27.97,East,96,1.0,1.0,88,0.01,,---,0.01,VWS V14.01,2013-11-28 07:14:00,
2013-11-28 01:19:00,11.4,8.5,27.97,ENE,76,1.0,1.0,88,0.01,,---,0.01,VWS V14.01,2013-11-28 07:19:00,
2013-11-28 01:24:00,11.5,8.6,27.97,East,98,0.0,2.0,88,0.01,,---,0.01,VWS V14.01,2013-11-28 07:24:00,
2013-11-28 01:29:00,11.5,8.6,27.97,East,92,3.0,3.0,88,0.01,,---,0.01,VWS V14.01,2013-11-28 07:29:00,
2013-11-28 01:34:00,11.6,8.7,27.97,East,91,0.0,0.0,88,0.01,,---,0.01,VWS V14.01,2013-11-28 07:34:00,
2013-11-28 01:40:00,11.5,8.6,27.97,East,90,0.0,1.0,88,0.01,,---,0.01,VWS V14.01,2013-11-28 07:40:00,
2013-11-28 01:45:00,11.6,8.7,27.98,East,90,1.0,1.0,88,0.01,,---,0.01,VWS V14.01,2013-11-28 07:45:00,
2013-11-28 01:50:00,11.6,8.7,27.98,East,90,0.0,2.0,88,0.01,,---,0.01,VWS V14.01,2013-11-28 07:50:00,
2013-11-28 01:55:00,11.6,8.7,27.98,East,90,1.0,1.0,88,0.01,,---,0.01,VWS V14.01,2013-11-28 07:55:00,
2013-11-28 02:01:00,11.6,8.7,27.98,East,90,1.0,2.0,88,0.01,,---,0.01,VWS V14.01,2013-11-28 08:01:00,
2013-11-28 02:06:00,11.6,8.7,27.98,East,90,0.0,0.0,88,0.01,,---,0.01,VWS V14.01,2013-11-28 08:06:00,
2013-11-28 02:11:00,11.6,8.7,27.98,East,90,0.0,3.0,88,0.00,,---,0.01,VWS V14.01,2013-11-28 08:11:00,
2013-11-28 02:16:00,11.6,8.7,27.98,East,90,0.0,1.0,88,0.00,,---,0.01,VWS V14.01,2013-11-28 08:16:00,
2013-11-28 02:21:00,11.6,8.7,27.98,East,90,0.0,0.0,88,0.00,,---,0.01,VWS V14.01,2013-11-28 08:21:00,
2013-11-28 02:27:00,11.6,8.7,27.98,East,90,0.0,0.0,88,0.01,,---,0.02,VWS V14.01,2013-11-28 08:27:00,
2013-11-28 02:32:00,11.7,8.8,27.98,East,90,1.0,1.0,88,0.01,,---,0.02,VWS V14.01,2013-11-28 08:32:00,
2013-11-28 02:37:00,11.7,8.8,27.98,East,90,2.0,2.0,88,0.01,,---,0.02,VWS V14.01,2013-11-28 08:37:00,
2013-11-28 02:42:00,11.7,8.8,27.98,East,90,0.0,0.0,88,0.01,,---,0.02,VWS V14.01,2013-11-28 08:42:00,
2013-11-28 02:47:00,11.7,8.8,27.98,East,90,0.0,2.0,88,0.01,,---,0.02,VWS V14.01,2013-11-28 08:47:00,
2013-11-28 02:52:00,11.7,8.8,27.98,East,90,2.0,2.0,88,0.01,,---,0.02,VWS V14.01,2013-11-28 08:52:00,
2013-11-28 02:57:00,11.6,8.7,27.98,East,90,1.0,2.0,88,0.01,,---,0.02,VWS V14.01,2013-11-28 08:57:00,
2013-11-28 03:02:00,11.6,9.0,27.98,East,90,1.0,3.0,89,0.01,,---,0.02,VWS V14.01,2013-11-28 09:02:00,
2013-11-28 03:07:00,11.6,9.0,27.98,East,90,0.0,2.0,89,0.02,,---,0.03,VWS V14.01,2013-11-28 09:07:00,
2013-11-28 03:12:00,11.6,9.0,27.98,East,90,0.0,2.0,89,0.02,,---,0.03,VWS V14.01,2013-11-28 09:12:00,
2013-11-28 03:18:00,11.7,9.1,27.98,East,90,0.0,0.0,89,0.02,,---,0.03,VWS V14.01,2013-11-28 09:18:00,
2013-11-28 03:23:00,11.7,9.1,27.98,East,84,2.0,2.0,89,0.02,,---,0.03,VWS V14.01,2013-11-28 09:23:00,
2013-11-28 03:28:00,11.7,8.8,27.98,East,84,0.0,1.0,88,0.01,,---,0.03,VWS V14.01,2013-11-28 09:28:00,
2013-11-28 03:33:00,11.7,9.1,27.98,East,80,0.0,2.0,89,0.01,,---,0.03,VWS V14.01,2013-11-28 09:33:00,
2013-11-28 03:38:00,11.7,8.8,27.98,East,80,0.0,0.0,88,0.01,,---,0.03,VWS V14.01,2013-11-28 09:38:00,
2013-11-28 03:43:00,11.7,8.8,27.98,ENE,74,1.0,2.0,88,0.01,,---,0.03,VWS V14.01,2013-11-28 09:43:00,
2013-11-28 03:48:00,11.7,9.1,27.98,ENE,77,1.0,4.0,89,0.02,,---,0.04,VWS V14.01,2013-11-28 09:48:00,
2013-11-28 03:53:00,11.7,8.8,27.98,NE,56,4.0,5.0,88,0.02,,---,0.04,VWS V14.01,2013-11-28 09:53:00,
2013-11-28 03:58:00,11.7,8.8,27.98,ENE,64,1.0,2.0,88,0.02,,---,0.04,VWS V14.01,2013-11-28 09:58:00,
2013-11-28 04:03:00,11.7,8.8,27.98,ENE,61,0.0,0.0,88,0.02,,---,0.04,VWS V14.01,2013-11-28 10:03:00,
2013-11-28 04:09:00,11.7,9.1,27.98,ENE,61,1.0,1.0,89,0.01,,---,0.04,VWS V14.01,2013-11-28 10:09:00,
2013-11-28 04:14:00,11.8,9.2,27.98,ENE,61,0.0,0.0,89,0.01,,---,0.04,VWS V14.01,2013-11-28 10:14:00,
2013-11-28 04:19:00,11.8,9.2,27.98,ENE,61,0.0,0.0,89,0.01,,---,0.04,VWS V14.01,2013-11-28 10:19:00,
2013-11-28 04:24:00,11.9,9.3,27.98,ENE,61,0.0,1.0,89,0.01,,---,0.04,VWS V14.01,2013-11-28 10:24:00,
2013-11-28 04:29:00,12.0,9.4,27.98,ENE,61,0.0,1.0,89,0.01,,---,0.04,VWS V14.01,2013-11-28 10:29:00,
2013-11-28 04:34:00,12.1,9.5,27.98,ENE,61,2.0,2.0,89,0.01,,---,0.04,VWS V14.01,2013-11-28 10:34:00,
2013-11-28 04:39:00,12.1,9.5,27.98,ENE,61,0.0,0.0,89,0.01,,---,0.04,VWS V14.01,2013-11-28 10:39:00,
2013-11-28 04:44:00,12.1,9.5,27.98,ENE,61,0.0,1.0,89,0.01,,---,0.04,VWS V14.01,2013-11-28 10:44:00,
2013-11-28 04:49:00,12.0,9.4,27.99,ENE,78,3.0,3.0,89,0.00,,---,0.04,VWS V14.01,2013-11-28 10:49:00,
2013-11-28 04:55:00,12.0,9.4,27.99,ENE,58,2.0,4.0,89,0.00,,---,0.04,VWS V14.01,2013-11-28 10:55:00,
2013-11-28 05:00:00,11.9,9.3,27.99,East,85,1.0,2.0,89,0.00,,---,0.04,VWS V14.01,2013-11-28 11:00:00,
2013-11-28 05:05:00,11.8,8.9,27.99,ENE,74,0.0,3.0,88,0.00,,---,0.04,VWS V14.01,2013-11-28 11:05:00,
2013-11-28 05:10:00,11.7,9.1,27.99,ENE,74,1.0,1.0,89,0.00,,---,0.04,VWS V14.01,2013-11-28 11:10:00,
2013-11-28 05:15:00,11.7,8.8,27.99,ENE,63,2.0,2.0,88,0.00,,---,0.04,VWS V14.01,2013-11-28 11:15:00,
2013-11-28 05:21:00,11.7,9.1,27.99,ENE,63,0.0,0.0,89,0.00,,---,0.04,VWS V14.01,2013-11-28 11:21:00,
2013-11-28 05:26:00,11.7,9.1,27.99,ENE,63,0.0,0.0,89,0.00,,---,0.04,VWS V14.01,2013-11-28 11:26:00,
2013-11-28 05:31:00,11.7,9.1,27.99,ENE,63,1.0,2.0,89,0.00,,---,0.04,VWS V14.01,2013-11-28 11:31:00,
2013-11-28 05:36:00,11.6,9.0,27.99,ENE,63,0.0,0.0,89,0.00,,---,0.04,VWS V14.01,2013-11-28 11:36:00,
2013-11-28 05:41:00,11.6,9.0,27.99,ENE,63,0.0,2.0,89,0.00,,---,0.04,VWS V14.01,2013-11-28 11:41:00,
2013-11-28 05:47:00,11.5,8.9,28.00,ENE,63,1.0,1.0,89,0.00,,---,0.04,VWS V14.01,2013-11-28 11:47:00,
2013-11-28 05:52:00,11.5,8.9,28.00,ENE,63,0.0,1.0,89,0.00,,---,0.04,VWS V14.01,2013-11-28 11:52:00,
2013-11-28 05:57:00,11.4,8.8,28.00,ENE,63,0.0,0.0,89,0.00,,---,0.04,VWS V14.01,2013-11-28 11:57:00,
2013-11-28 06:02:00,11.4,8.8,28.00,ENE,63,0.0,1.0,89,0.01,,---,0.05,VWS V14.01,2013-11-28 12:02:00,
2013-11-28 06:08:00,11.4,8.8,28.00,ENE,63,0.0,0.0,89,0.01,,---,0.05,VWS V14.01,2013-11-28 12:08:00,
2013-11-28 06:13:00,11.3,8.7,28.00,ENE,63,0.0,0.0,89,0.01,,---,0.05,VWS V14.01,2013-11-28 12:13:00,
2013-11-28 06:18:00,11.2,8.4,28.00,ENE,63,1.0,1.0,88,0.01,,---,0.05,VWS V14.01,2013-11-28 12:18:00,
2013-11-28 06:23:00,11.0,8.1,28.00,ENE,61,0.0,2.0,88,0.01,,---,0.05,VWS V14.01,2013-11-28 12:23:00,
2013-11-28 06:28:00,10.9,8.1,28.00,ENE,63,1.0,2.0,88,0.01,,---,0.05,VWS V14.01,2013-11-28 12:28:00,
2013-11-28 06:33:00,10.8,7.9,28.01,ENE,75,2.0,3.0,88,0.01,,---,0.05,VWS V14.01,2013-11-28 12:33:00,
2013-11-28 06:38:00,10.7,7.8,28.01,ENE,72,1.0,2.0,88,0.01,,---,0.05,VWS V14.01,2013-11-28 12:38:00,
2013-11-28 06:43:00,10.6,7.8,28.01,ENE,72,0.0,2.0,88,0.01,,---,0.05,VWS V14.01,2013-11-28 12:43:00,
2013-11-28 06:48:00,10.5,7.7,28.01,ENE,70,2.0,2.0,88,0.01,,---,0.05,VWS V14.01,2013-11-28 12:48:00,
2013-11-28 06:54:00,10.5,7.7,28.01,ENE,70,0.0,0.0,88,0.01,,---,0.05,VWS V14.01,2013-11-28 12:54:00,
2013-11-28 06:59:00,10.5,7.7,28.01,ENE,70,1.0,1.0,88,0.00,,---,0.05,VWS V14.01,2013-11-28 12:59:00,
2013-11-28 07:04:00,10.5,7.7,28.02,ENE,70,2.0,2.0,88,0.00,,---,0.05,VWS V14.01,2013-11-28 13:04:00,
2013-11-28 07:09:00,10.5,7.7,28.02,ENE,70,0.0,1.0,88,0.00,,---,0.05,VWS V14.01,2013-11-28 13:09:00,
2013-11-28 07:14:00,10.5,7.7,28.02,ENE,70,0.0,1.0,88,0.00,,---,0.05,VWS V14.01,2013-11-28 13:14:00,
2013-11-28 07:20:00,10.5,7.9,28.02,ENE,70,0.0,0.0,89,0.00,,---,0.05,VWS V14.01,2013-11-28 13:20:00,
2013-11-28 07:25:00,10.6,8.0,28.02,ENE,70,1.0,1.0,89,0.00,,---,0.05,VWS V14.01,2013-11-28 13:25:00,
2013-11-28 07:30:00,10.6,7.8,28.03,ENE,66,3.0,3.0,88,0.00,,---,0.05,VWS V14.01,2013-11-28 13:30:00,
2013-11-28 07:35:00,10.5,7.7,28.03,NNE,22,1.0,5.0,88,0.00,,---,0.05,VWS V14.01,2013-11-28 13:35:00,
2013-11-28 07:40:00,10.5,7.7,28.03,NNE,26,5.0,5.0,88,0.00,,---,0.05,VWS V14.01,2013-11-28 13:40:00,
2013-11-28 07:45:00,10.5,7.7,28.03,East,79,1.0,3.0,88,0.00,,---,0.05,VWS V14.01,2013-11-28 13:45:00,
2013-11-28 07:51:00,10.5,7.7,28.03,ENE,59,3.0,3.0,88,0.00,,---,0.05,VWS V14.01,2013-11-28 13:51:00,
2013-11-28 07:56:00,10.6,7.8,28.03,ENE,64,8.0,8.0,88,0.00,,---,0.05,VWS V14.01,2013-11-28 13:56:00,
2013-11-28 08:01:00,10.6,7.8,28.03,ENE,74,1.0,5.0,88,0.00,,---,0.05,VWS V14.01,2013-11-28 14:01:00,
2013-11-28 08:06:00,10.6,7.8,28.03,ENE,77,2.0,3.0,88,0.00,,---,0.05,VWS V14.01,2013-11-28 14:06:00,
2013-11-28 08:11:00,10.7,7.8,28.03,East,89,0.0,2.0,88,0.00,,---,0.05,VWS V14.01,2013-11-28 14:11:00,
2013-11-28 08:17:00,10.7,7.8,28.04,NE,37,0.0,0.0,88,0.00,,---,0.05,VWS V14.01,2013-11-28 14:17:00,
2013-11-28 08:22:00,10.8,7.9,28.04,ENE,57,0.0,0.0,88,0.00,,---,0.05,VWS V14.01,2013-11-28 14:22:00,
2013-11-28 08:27:00,10.9,8.1,28.04,NE,35,0.0,3.0,88,0.00,,---,0.05,VWS V14.01,2013-11-28 14:27:00,
2013-11-28 08:32:00,11.0,8.1,28.05,NE,35,0.0,0.0,88,0.00,,---,0.05,VWS V14.01,2013-11-28 14:32:00,
2013-11-28 08:37:00,11.2,8.4,28.05,NE,35,0.0,0.0,88,0.00,,---,0.05,VWS V14.01,2013-11-28 14:37:00,
2013-11-28 08:42:00,11.3,8.7,28.05,NNE,21,2.0,4.0,89,0.00,,---,0.05,VWS V14.01,2013-11-28 14:42:00,
2013-11-28 08:48:00,11.3,8.4,28.06,ENE,58,2.0,3.0,88,0.00,,---,0.05,VWS V14.01,2013-11-28 14:48:00,
2013-11-28 08:53:00,11.4,8.5,28.06,NE,51,0.0,3.0,88,0.00,,---,0.05,VWS V14.01,2013-11-28 14:53:00,
2013-11-28 08:58:00,11.5,8.6,28.06,ENE,71,3.0,3.0,88,0.00,,---,0.05,VWS V14.01,2013-11-28 14:58:00,
2013-11-28 09:03:00,11.6,8.7,28.06,ENE,68,0.0,3.0,88,0.00,,---,0.05,VWS V14.01,2013-11-28 15:03:00,
2013-11-28 09:08:00,11.7,8.8,28.06,ENE,71,2.0,4.0,88,0.00,,---,0.05,VWS V14.01,2013-11-28 15:08:00,
2013-11-28 09:14:00,11.7,8.8,28.06,NE,55,2.0,4.0,88,0.00,,---,0.05,VWS V14.01,2013-11-28 15:14:00,
2013-11-28 09:19:00,11.8,8.9,28.06,ENE,63,1.0,3.0,88,0.00,,---,0.05,VWS V14.01,2013-11-28 15:19:00,
2013-11-28 09:24:00,11.9,9.0,28.06,ENE,75,4.0,6.0,88,0.00,,---,0.05,VWS V14.01,2013-11-28 15:24:00,
2013-11-28 09:29:00,12.0,8.9,28.06,NE,44,1.0,5.0,87,0.00,,---,0.05,VWS V14.01,2013-11-28 15:29:00,
2013-11-28 09:34:00,12.0,8.9,28.07,East,86,2.0,4.0,87,0.00,,---,0.05,VWS V14.01,2013-11-28 15:34:00,
2013-11-28 09:40:00,12.1,9.0,28.07,ENE,60,5.0,5.0,87,0.00,,---,0.05,VWS V14.01,2013-11-28 15:40:00,
2013-11-28 09:45:00,12.3,9.4,28.08,NNE,30,2.0,4.0,88,0.00,,---,0.05,VWS V14.01,2013-11-28 15:45:00,
2013-11-28 09:50:00,12.3,9.2,28.08,NE,54,3.0,4.0,87,0.00,,---,0.05,VWS V14.01,2013-11-28 15:50:00,
2013-11-28 09:55:00,12.5,9.4,28.08,NNE,23,0.0,5.0,87,0.00,,---,0.05,VWS V14.01,2013-11-28 15:55:00,
2013-11-28 10:00:00,12.7,9.6,28.08,NNE,28,3.0,6.0,87,0.00,,---,0.05,VWS V14.01,2013-11-28 16:00:00,
2013-11-28 10:05:00,12.8,9.7,28.08,NE,51,4.0,7.0,87,0.00,,---,0.05,VWS V14.01,2013-11-28 16:05:00,
2013-11-28 10:10:00,12.7,9.6,28.08,NNE,22,5.0,5.0,87,0.00,,---,0.05,VWS V14.01,2013-11-28 16:10:00,
2013-11-28 10:15:00,12.8,9.7,28.09,North,11,5.0,5.0,87,0.00,,---,0.05,VWS V14.01,2013-11-28 16:15:00,
2013-11-28 10:20:00,13.0,9.9,28.09,NE,36,2.0,4.0,87,0.00,,---,0.05,VWS V14.01,2013-11-28 16:20:00,
2013-11-28 10:25:00,13.4,10.3,28.09,NE,36,4.0,4.0,87,0.00,,---,0.05,VWS V14.01,2013-11-28 16:25:00,
2013-11-28 10:30:00,13.6,10.5,28.09,ENE,63,3.0,5.0,87,0.00,,---,0.05,VWS V14.01,2013-11-28 16:30:00,
2013-11-28 10:35:00,13.6,10.5,28.09,NNE,21,4.0,4.0,87,0.00,,---,0.05,VWS V14.01,2013-11-28 16:35:00,
2013-11-28 10:41:00,13.8,10.6,28.09,NNE,32,7.0,7.0,87,0.00,,---,0.05,VWS V14.01,2013-11-28 16:41:00,
2013-11-28 10:46:00,13.8,10.6,28.09,NE,36,1.0,5.0,87,0.00,,---,0.05,VWS V14.01,2013-11-28 16:46:00,
2013-11-28 10:51:00,14.0,10.9,28.09,NNE,31,4.0,4.0,87,0.00,,---,0.05,VWS V14.01,2013-11-28 16:51:00,
2013-11-28 10:56:00,14.1,10.9,28.09,NNE,29,0.0,4.0,87,0.00,,---,0.05,VWS V14.01,2013-11-28 16:56:00,
2013-11-28 11:01:00,14.3,11.1,28.09,NNE,31,2.0,5.0,87,0.00,,---,0.05,VWS V14.01,2013-11-28 17:01:00,
2013-11-28 11:06:00,14.5,11.3,28.09,NE,36,1.0,2.0,87,0.00,,---,0.05,VWS V14.01,2013-11-28 17:06:00,
2013-11-28 11:12:00,14.8,11.6,28.09,North,5,5.0,5.0,87,0.00,,---,0.05,VWS V14.01,2013-11-28 17:12:00,
2013-11-28 11:17:00,14.8,11.4,28.10,ENE,67,0.0,1.0,86,0.00,,---,0.05,VWS V14.01,2013-11-28 17:17:00,
2013-11-28 11:22:00,15.1,11.9,28.10,NNE,15,2.0,5.0,87,0.00,,---,0.05,VWS V14.01,2013-11-28 17:22:00,
2013-11-28 11:27:00,15.1,11.7,28.10,NE,36,2.0,4.0,86,0.00,,---,0.05,VWS V14.01,2013-11-28 17:27:00,
2013-11-28 11:32:00,14.8,11.1,28.10,NNE,22,4.0,8.0,85,0.00,,---,0.05,VWS V14.01,2013-11-28 17:32:00,
2013-11-28 11:37:00,14.8,11.4,28.10,NNE,21,2.0,7.0,86,0.00,,---,0.05,VWS V14.01,2013-11-28 17:37:00,
2013-11-28 11:42:00,14.9,11.5,28.10,NNE,28,3.0,6.0,86,0.00,,---,0.05,VWS V14.01,2013-11-28 17:42:00,
2013-11-28 11:48:00,15.3,11.9,28.10,NNE,15,3.0,4.0,86,0.00,,---,0.05,VWS V14.01,2013-11-28 17:48:00,
2013-11-28 11:53:00,15.3,11.9,28.10,North,355,3.0,5.0,86,0.00,,---,0.05,VWS V14.01,2013-11-28 17:53:00,
2013-11-28 11:58:00,15.5,11.8,28.10,NNE,13,5.0,5.0,85,0.00,,---,0.05,VWS V14.01,2013-11-28 17:58:00,
2013-11-28 12:03:00,16.1,12.7,28.11,NNE,17,0.0,3.0,86,0.00,,---,0.05,VWS V14.01,2013-11-28 18:03:00,
2013-11-28 12:09:00,16.3,12.3,28.11,NNE,13,1.0,4.0,84,0.00,,---,0.05,VWS V14.01,2013-11-28 18:09:00,
2013-11-28 12:14:00,16.4,12.7,28.11,NNE,22,3.0,6.0,85,0.00,,---,0.05,VWS V14.01,2013-11-28 18:14:00,
2013-11-28 12:19:00,16.4,12.7,28.11,NNE,24,5.0,6.0,85,0.00,,---,0.05,VWS V14.01,2013-11-28 18:19:00,
2013-11-28 12:24:00,16.2,12.5,28.11,NNE,19,5.0,5.0,85,0.00,,---,0.05,VWS V14.01,2013-11-28 18:24:00,
2013-11-28 12:29:00,15.9,12.2,28.11,North,355,2.0,7.0,85,0.00,,---,0.05,VWS V14.01,2013-11-28 18:29:00,
2013-11-28 12:34:00,15.8,12.4,28.12,North,355,2.0,6.0,86,0.00,,---,0.05,VWS V14.01,2013-11-28 18:34:00,
2013-11-28 12:39:00,15.7,12.0,28.12,North,10,3.0,6.0,85,0.00,,---,0.05,VWS V14.01,2013-11-28 18:39:00,
2013-11-28 12:44:00,15.5,12.1,28.12,NNE,24,2.0,4.0,86,0.00,,---,0.05,VWS V14.01,2013-11-28 18:44:00,
2013-11-28 12:50:00,15.5,12.1,28.12,NW,325,4.0,5.0,86,0.00,,---,0.05,VWS V14.01,2013-11-28 18:50:00,
2013-11-28 12:55:00,15.3,12.1,28.12,NNE,15,2.0,3.0,87,0.00,,---,0.05,VWS V14.01,2013-11-28 18:55:00,
2013-11-28 13:00:00,15.3,11.9,28.12,NE,40,3.0,3.0,86,0.00,,---,0.05,VWS V14.01,2013-11-28 19:00:00,
2013-11-28 13:05:00,15.2,12.0,28.12,NNE,20,2.0,3.0,87,0.00,,---,0.05,VWS V14.01,2013-11-28 19:05:00,
2013-11-28 13:11:00,15.3,12.1,28.12,NNE,22,3.0,5.0,87,0.00,,---,0.05,VWS V14.01,2013-11-28 19:11:00,
2013-11-28 13:16:00,15.1,11.9,28.13,NNW,333,0.0,3.0,87,0.00,,---,0.05,VWS V14.01,2013-11-28 19:16:00,
2013-11-28 13:21:00,14.8,11.6,28.13,North,360,4.0,6.0,87,0.00,,---,0.05,VWS V14.01,2013-11-28 19:21:00,
2013-11-28 13:26:00,14.8,11.6,28.13,North,5,2.0,6.0,87,0.00,,---,0.05,VWS V14.01,2013-11-28 19:26:00,
2013-11-28 13:31:00,14.5,11.3,28.14,North,5,3.0,6.0,87,0.00,,---,0.05,VWS V14.01,2013-11-28 19:31:00,
2013-11-28 13:36:00,14.6,11.7,28.14,North,5,5.0,5.0,88,0.00,,---,0.05,VWS V14.01,2013-11-28 19:36:00,
2013-11-28 13:41:00,14.6,11.7,28.14,North,5,2.0,5.0,88,0.00,,---,0.05,VWS V14.01,2013-11-28 19:41:00,
2013-11-28 13:46:00,14.5,11.6,28.14,NNE,19,3.0,4.0,88,0.00,,---,0.05,VWS V14.01,2013-11-28 19:46:00,
2013-11-28 13:51:00,14.5,11.6,28.14,NNE,24,3.0,7.0,88,0.00,,---,0.05,VWS V14.01,2013-11-28 19:51:00,
2013-11-28 13:56:00,14.4,11.5,28.14,North,349,1.0,5.0,88,0.00,,---,0.05,VWS V14.01,2013-11-28 19:56:00,
2013-11-28 14:02:00,14.5,11.6,28.14,NE,38,2.0,2.0,88,0.01,,---,0.06,VWS V14.01,2013-11-28 20:02:00,
2013-11-28 14:07:00,14.6,11.7,28.14,NNE,33,1.0,3.0,88,0.01,,---,0.06,VWS V14.01,2013-11-28 20:07:00,
2013-11-28 14:12:00,14.6,11.7,28.14,NNE,25,1.0,2.0,88,0.01,,---,0.06,VWS V14.01,2013-11-28 20:12:00,
2013-11-28 14:17:00,14.7,11.8,28.15,North,360,1.0,4.0,88,0.01,,---,0.06,VWS V14.01,2013-11-28 20:17:00,
2013-11-28 14:22:00,14.9,12.2,28.15,North,10,2.0,4.0,89,0.01,,---,0.06,VWS V14.01,2013-11-28 20:22:00,
2013-11-28 14:27:00,14.9,12.0,28.15,NNE,17,3.0,3.0,88,0.01,,---,0.06,VWS V14.01,2013-11-28 20:27:00,
2013-11-28 14:32:00,14.7,11.8,28.15,NNE,20,3.0,5.0,88,0.01,,---,0.06,VWS V14.01,2013-11-28 20:32:00,
2013-11-28 14:37:00,14.7,11.8,28.15,NNE,15,3.0,3.0,88,0.01,,---,0.06,VWS V14.01,2013-11-28 20:37:00,
2013-11-28 14:43:00,14.6,11.4,28.15,NNE,24,3.0,3.0,87,0.01,,---,0.06,VWS V14.01,2013-11-28 20:43:00,
2013-11-28 14:48:00,14.5,11.6,28.16,NNE,32,4.0,4.0,88,0.01,,---,0.06,VWS V14.01,2013-11-28 20:48:00,
2013-11-28 14:53:00,14.6,11.7,28.16,NNE,32,2.0,3.0,88,0.01,,---,0.06,VWS V14.01,2013-11-28 20:53:00,
2013-11-28 14:58:00,14.6,11.7,28.16,NNE,28,2.0,5.0,88,0.01,,---,0.06,VWS V14.01,2013-11-28 20:58:00,
2013-11-28 15:03:00,14.5,11.6,28.17,NNW,348,4.0,4.0,88,0.00,,---,0.06,VWS V14.01,2013-11-28 21:03:00,
2013-11-28 15:08:00,14.4,11.5,28.17,North,351,2.0,4.0,88,0.00,,---,0.06,VWS V14.01,2013-11-28 21:08:00,
2013-11-28 15:13:00,14.3,11.4,28.17,NNE,15,3.0,6.0,88,0.00,,---,0.06,VWS V14.01,2013-11-28 21:13:00,
2013-11-28 15:18:00,14.3,11.4,28.17,North,11,2.0,4.0,88,0.00,,---,0.06,VWS V14.01,2013-11-28 21:18:00,
2013-11-28 15:24:00,14.2,11.3,28.17,NNW,338,3.0,4.0,88,0.00,,---,0.06,VWS V14.01,2013-11-28 21:24:00,
2013-11-28 15:29:00,14.1,11.2,28.17,North,360,5.0,5.0,88,0.00,,---,0.06,VWS V14.01,2013-11-28 21:29:00,
2013-11-28 15:34:00,14.0,11.1,28.18,NNE,22,3.0,6.0,88,0.00,,---,0.06,VWS V14.01,2013-11-28 21:34:00,
2013-11-28 15:39:00,13.9,11.0,28.18,North,9,2.0,4.0,88,0.00,,---,0.06,VWS V14.01,2013-11-28 21:39:00,
2013-11-28 15:44:00,13.7,10.8,28.18,North,9,5.0,5.0,88,0.00,,---,0.06,VWS V14.01,2013-11-28 21:44:00,
2013-11-28 15:49:00,13.7,11.1,28.18,North,11,4.0,4.0,89,0.00,,---,0.06,VWS V14.01,2013-11-28 21:49:00,
2013-11-28 15:55:00,13.5,10.6,28.18,NNE,16,0.0,1.0,88,0.00,,---,0.06,VWS V14.01,2013-11-28 21:55:00,
2013-11-28 16:00:00,13.4,10.5,28.19,NNE,13,2.0,4.0,88,0.00,,---,0.06,VWS V14.01,2013-11-28 22:00:00,
2013-11-28 16:05:00,13.3,10.4,28.19,NNE,13,4.0,4.0,88,0.00,,---,0.06,VWS V14.01,2013-11-28 22:05:00,
2013-11-28 16:10:00,13.2,10.6,28.19,North,360,1.0,1.0,89,0.00,,---,0.06,VWS V14.01,2013-11-28 22:10:00,
2013-11-28 16:15:00,13.1,10.5,28.20,North,5,2.0,6.0,89,0.00,,---,0.06,VWS V14.01,2013-11-28 22:15:00,
2013-11-28 16:20:00,13.0,10.4,28.20,NNE,21,4.0,4.0,89,0.00,,---,0.06,VWS V14.01,2013-11-28 22:20:00,
2013-11-28 16:25:00,13.0,10.1,28.20,North,11,5.0,6.0,88,0.00,,---,0.06,VWS V14.01,2013-11-28 22:25:00,
2013-11-28 16:31:00,12.8,9.9,28.21,NNE,21,0.0,4.0,88,0.00,,---,0.06,VWS V14.01,2013-11-28 22:31:00,
2013-11-28 16:36:00,12.8,9.9,28.21,NNE,17,0.0,3.0,88,0.00,,---,0.06,VWS V14.01,2013-11-28 22:36:00,
2013-11-28 16:41:00,12.7,9.8,28.21,NNE,17,0.0,2.0,88,0.00,,---,0.06,VWS V14.01,2013-11-28 22:41:00,
2013-11-28 16:46:00,12.7,9.8,28.21,NNE,19,0.0,2.0,88,0.00,,---,0.06,VWS V14.01,2013-11-28 22:46:00,
2013-11-28 16:51:00,12.7,9.8,28.21,NNE,18,0.0,2.0,88,0.00,,---,0.06,VWS V14.01,2013-11-28 22:51:00,
2013-11-28 16:56:00,12.7,9.8,28.21,NNE,26,0.0,3.0,88,0.00,,---,0.06,VWS V14.01,2013-11-28 22:56:00,
2013-11-28 17:01:00,12.6,9.7,28.22,NNE,25,0.0,2.0,88,0.00,,---,0.06,VWS V14.01,2013-11-28 23:01:00,
2013-11-28 17:07:00,12.6,9.7,28.22,NNE,25,1.0,1.0,88,0.00,,---,0.06,VWS V14.01,2013-11-28 23:07:00,
2013-11-28 17:12:00,12.6,10.0,28.22,NNE,25,1.0,1.0,89,0.00,,---,0.06,VWS V14.01,2013-11-28 23:12:00,
2013-11-28 17:17:00,12.6,10.0,28.23,NNE,25,1.0,3.0,89,0.00,,---,0.06,VWS V14.01,2013-11-28 23:17:00,
2013-11-28 17:22:00,12.5,9.6,28.23,NNE,26,2.0,3.0,88,0.00,,---,0.06,VWS V14.01,2013-11-28 23:22:00,
2013-11-28 17:27:00,12.4,9.5,28.23,NNE,27,0.0,3.0,88,0.00,,---,0.06,VWS V14.01,2013-11-28 23:27:00,
2013-11-28 17:32:00,12.3,9.4,28.23,NNE,26,0.0,4.0,88,0.00,,---,0.06,VWS V14.01,2013-11-28 23:32:00,
2013-11-28 17:38:00,12.3,9.4,28.23,NNE,26,2.0,2.0,88,0.00,,---,0.06,VWS V14.01,2013-11-28 23:38:00,
2013-11-28 17:43:00,12.2,9.3,28.23,NNE,26,0.0,0.0,88,0.00,,---,0.06,VWS V14.01,2013-11-28 23:43:00,
2013-11-28 17:48:00,12.2,9.3,28.24,NNE,26,2.0,3.0,88,0.00,,---,0.06,VWS V14.01,2013-11-28 23:48:00,
2013-11-28 17:53:00,12.2,9.3,28.24,NNE,26,0.0,0.0,88,0.00,,---,0.06,VWS V14.01,2013-11-28 23:53:00,
2013-11-28 17:59:00,12.1,9.2,28.24,NNE,28,1.0,3.0,88,0.00,,---,0.06,VWS V14.01,2013-11-28 23:59:00,
2013-11-28 18:04:00,12.0,9.1,28.24,NNE,28,1.0,1.0,88,0.00,,---,0.06,VWS V14.01,2013-11-29 00:04:00,
2013-11-28 18:09:00,11.9,9.0,28.24,NNE,28,0.0,0.0,88,0.00,,---,0.06,VWS V14.01,2013-11-29 00:09:00,
2013-11-28 18:14:00,11.8,8.9,28.24,NNE,29,2.0,2.0,88,0.00,,---,0.06,VWS V14.01,2013-11-29 00:14:00,
2013-11-28 18:19:00,11.7,8.8,28.25,NNE,29,3.0,3.0,88,0.00,,---,0.06,VWS V14.01,2013-11-29 00:19:00,
2013-11-28 18:24:00,11.7,8.8,28.25,NNE,28,0.0,1.0,88,0.00,,---,0.06,VWS V14.01,2013-11-29 00:24:00,
2013-11-28 18:29:00,11.6,8.7,28.25,NE,36,0.0,1.0,88,0.00,,---,0.06,VWS V14.01,2013-11-29 00:29:00,
2013-11-28 18:34:00,11.6,8.7,28.26,NE,36,0.0,1.0,88,0.00,,---,0.06,VWS V14.01,2013-11-29 00:34:00,
2013-11-28 18:40:00,11.6,8.7,28.26,NE,36,1.0,2.0,88,0.00,,---,0.06,VWS V14.01,2013-11-29 00:40:00,
2013-11-28 18:45:00,11.6,8.7,28.26,NE,36,0.0,1.0,88,0.00,,---,0.06,VWS V14.01,2013-11-29 00:45:00,
2013-11-28 18:50:00,11.6,8.7,28.26,NE,36,0.0,0.0,88,0.00,,---,0.06,VWS V14.01,2013-11-29 00:50:00,
2013-11-28 18:55:00,11.6,8.7,28.26,NE,36,0.0,1.0,88,0.00,,---,0.06,VWS V14.01,2013-11-29 00:55:00,
2013-11-28 19:00:00,11.6,8.7,28.26,NE,36,0.0,0.0,88,0.00,,---,0.06,VWS V14.01,2013-11-29 01:00:00,
2013-11-28 19:05:00,11.6,8.7,28.26,NE,36,1.0,2.0,88,0.00,,---,0.06,VWS V14.01,2013-11-29 01:05:00,
2013-11-28 19:11:00,11.6,8.7,28.26,NE,36,0.0,0.0,88,0.00,,---,0.06,VWS V14.01,2013-11-29 01:11:00,
2013-11-28 19:16:00,11.5,8.6,28.26,NE,36,0.0,0.0,88,0.00,,---,0.06,VWS V14.01,2013-11-29 01:16:00,
2013-11-28 19:21:00,11.5,8.6,28.26,NE,36,0.0,0.0,88,0.00,,---,0.06,VWS V14.01,2013-11-29 01:21:00,
2013-11-28 19:26:00,11.4,8.5,28.26,NE,36,0.0,0.0,88,0.00,,---,0.06,VWS V14.01,2013-11-29 01:26:00,
2013-11-28 19:32:00,11.3,8.4,28.26,NE,36,0.0,0.0,88,0.00,,---,0.06,VWS V14.01,2013-11-29 01:32:00,
2013-11-28 19:37:00,11.1,8.2,28.26,NE,36,0.0,0.0,88,0.00,,---,0.06,VWS V14.01,2013-11-29 01:37:00,
2013-11-28 19:42:00,10.9,8.1,28.26,NE,36,0.0,0.0,88,0.00,,---,0.06,VWS V14.01,2013-11-29 01:42:00,
2013-11-28 19:47:00,10.7,7.8,28.26,NE,36,0.0,0.0,88,0.00,,---,0.06,VWS V14.01,2013-11-29 01:47:00,
2013-11-28 19:52:00,10.5,7.7,28.26,NE,36,0.0,0.0,88,0.00,,---,0.06,VWS V14.01,2013-11-29 01:52:00,
2013-11-28 19:58:00,10.5,7.7,28.26,NE,36,0.0,0.0,88,0.00,,---,0.06,VWS V14.01,2013-11-29 01:58:00,
2013-11-28 20:03:00,10.4,7.6,28.26,NE,36,0.0,0.0,88,0.00,,---,0.06,VWS V14.01,2013-11-29 02:03:00,
2013-11-28 20:08:00,10.4,7.6,28.26,NE,36,0.0,0.0,88,0.00,,---,0.06,VWS V14.01,2013-11-29 02:08:00,
2013-11-28 20:13:00,10.3,7.2,28.26,NE,36,0.0,1.0,87,0.00,,---,0.06,VWS V14.01,2013-11-29 02:13:00,
2013-11-28 20:18:00,10.2,7.1,28.27,NE,36,0.0,1.0,87,0.00,,---,0.06,VWS V14.01,2013-11-29 02:18:00,
2013-11-28 20:24:00,10.2,7.1,28.27,NE,36,1.0,1.0,87,0.00,,---,0.06,VWS V14.01,2013-11-29 02:24:00,
2013-11-28 20:29:00,10.3,7.5,28.27,NE,36,1.0,2.0,88,0.00,,---,0.06,VWS V14.01,2013-11-29 02:29:00,
2013-11-28 20:34:00,10.3,7.2,28.27,NE,36,0.0,0.0,87,0.00,,---,0.06,VWS V14.01,2013-11-29 02:34:00,
2013-11-28 20:39:00,10.3,7.2,28.27,NE,36,0.0,1.0,87,0.00,,---,0.06,VWS V14.01,2013-11-29 02:39:00,
2013-11-28 20:44:00,10.3,7.2,28.27,NE,36,0.0,0.0,87,0.00,,---,0.06,VWS V14.01,2013-11-29 02:44:00,
2013-11-28 20:50:00,10.4,7.6,28.28,NE,36,1.0,1.0,88,0.00,,---,0.06,VWS V14.01,2013-11-29 02:50:00,
2013-11-28 20:55:00,10.4,7.6,28.28,NE,36,0.0,0.0,88,0.00,,---,0.06,VWS V14.01,2013-11-29 02:55:00,
2013-11-28 21:00:00,10.3,7.5,28.28,NE,36,0.0,1.0,88,0.00,,---,0.06,VWS V14.01,2013-11-29 03:00:00,
2013-11-28 21:05:00,10.3,7.5,28.28,NE,36,0.0,0.0,88,0.00,,---,0.06,VWS V14.01,2013-11-29 03:05:00,
2013-11-28 21:10:00,10.2,7.4,28.28,NE,36,0.0,0.0,88,0.00,,---,0.06,VWS V14.01,2013-11-29 03:10:00,
2013-11-28 21:15:00,10.1,7.3,28.29,NE,36,0.0,1.0,88,0.00,,---,0.06,VWS V14.01,2013-11-29 03:15:00,
2013-11-28 21:21:00,10.0,7.2,28.29,NE,36,0.0,0.0,88,0.00,,---,0.06,VWS V14.01,2013-11-29 03:21:00,
2013-11-28 21:26:00,9.9,7.1,28.29,NE,36,0.0,0.0,88,0.00,,---,0.06,VWS V14.01,2013-11-29 03:26:00,
2013-11-28 21:31:00,9.6,6.5,28.29,NE,36,0.0,0.0,87,0.00,,---,0.06,VWS V14.01,2013-11-29 03:31:00,
2013-11-28 21:36:00,9.4,6.3,28.29,NE,36,0.0,0.0,87,0.00,,---,0.06,VWS V14.01,2013-11-29 03:36:00,
2013-11-28 21:41:00,9.1,6.0,28.29,NE,36,0.0,0.0,87,0.00,,---,0.06,VWS V14.01,2013-11-29 03:41:00,
2013-11-28 21:46:00,8.9,5.8,28.29,NE,36,0.0,0.0,87,0.00,,---,0.06,VWS V14.01,2013-11-29 03:46:00,
2013-11-28 21:52:00,8.8,5.7,28.29,NE,36,0.0,0.0,87,0.00,,---,0.06,VWS V14.01,2013-11-29 03:52:00,
2013-11-28 21:57:00,8.7,5.6,28.29,NE,36,0.0,0.0,87,0.00,,---,0.06,VWS V14.01,2013-11-29 03:57:00,
2013-11-28 22:02:00,8.4,5.3,28.29,NE,36,0.0,0.0,87,0.00,,---,0.06,VWS V14.01,2013-11-29 04:02:00,
2013-11-28 22:07:00,8.1,4.8,28.29,NE,36,0.0,0.0,86,0.00,,---,0.06,VWS V14.01,2013-11-29 04:07:00,
2013-11-28 22:12:00,8.0,4.9,28.29,NE,36,0.0,0.0,87,0.00,,---,0.06,VWS V14.01,2013-11-29 04:12:00,
2013-11-28 22:17:00,7.8,4.7,28.29,NE,36,0.0,0.0,87,0.00,,---,0.06,VWS V14.01,2013-11-29 04:17:00,
2013-11-28 22:22:00,7.6,4.3,28.29,NE,36,0.0,0.0,86,0.00,,---,0.06,VWS V14.01,2013-11-29 04:22:00,
2013-11-28 22:27:00,7.6,4.6,28.29,NE,36,0.0,0.0,87,0.00,,---,0.06,VWS V14.01,2013-11-29 04:27:00,
2013-11-28 22:32:00,7.6,4.6,28.29,NE,36,0.0,0.0,87,0.00,,---,0.06,VWS V14.01,2013-11-29 04:32:00,
2013-11-28 22:38:00,7.6,4.6,28.29,NE,36,0.0,0.0,87,0.00,,---,0.06,VWS V14.01,2013-11-29 04:38:00,
2013-11-28 22:43:00,7.1,3.8,28.29,NE,36,0.0,0.0,86,0.00,,---,0.06,VWS V14.01,2013-11-29 04:43:00,
2013-11-28 22:48:00,6.7,3.4,28.30,NE,36,0.0,0.0,86,0.00,,---,0.06,VWS V14.01,2013-11-29 04:48:00,
2013-11-28 22:53:00,6.5,3.2,28.30,NE,36,0.0,0.0,86,0.00,,---,0.06,VWS V14.01,2013-11-29 04:53:00,
2013-11-28 22:58:00,6.5,3.5,28.30,NE,36,0.0,0.0,87,0.00,,---,0.06,VWS V14.01,2013-11-29 04:58:00,
2013-11-28 23:01:00,6.4,3.1,28.30,NE,36,0.0,0.0,86,0.00,,---,0.06,VWS V14.01,2013-11-29 05:01:00,
2013-11-28 23:02:00,6.4,3.1,28.30,NE,36,0.0,0.0,86,0.00,,---,0.06,VWS V14.01,2013-11-29 05:02:00,
2013-11-28 23:04:00,6.3,3.0,28.30,NE,36,0.0,0.0,86,0.00,,---,0.06,VWS V14.01,2013-11-29 05:04:00,
2013-11-28 23:06:00,6.3,3.0,28.30,NE,36,0.0,0.0,86,0.00,,---,0.06,VWS V14.01,2013-11-29 05:06:00,
2013-11-28 23:11:00,6.1,2.8,28.30,NE,36,0.0,0.0,86,0.00,,---,0.06,VWS V14.01,2013-11-29 05:11:00,
2013-11-28 23:16:00,6.1,3.1,28.31,NE,36,0.0,0.0,87,0.00,,---,0.06,VWS V14.01,2013-11-29 05:16:00,
2013-11-28 23:21:00,6.1,3.1,28.31,NE,36,0.0,0.0,87,0.00,,---,0.06,VWS V14.01,2013-11-29 05:21:00,
2013-11-28 23:27:00,6.0,2.7,28.31,NE,36,0.0,0.0,86,0.00,,---,0.06,VWS V14.01,2013-11-29 05:27:00,
2013-11-28 23:32:00,5.9,2.6,28.31,NE,36,0.0,0.0,86,0.00,,---,0.06,VWS V14.01,2013-11-29 05:32:00,
2013-11-28 23:37:00,5.8,2.5,28.31,NE,36,0.0,0.0,86,0.00,,---,0.06,VWS V14.01,2013-11-29 05:37:00,
2013-11-28 23:42:00,5.6,2.3,28.31,NE,36,0.0,0.0,86,0.00,,---,0.06,VWS V14.01,2013-11-29 05:42:00,
2013-11-28 23:47:00,5.6,2.3,28.31,NE,36,0.0,0.0,86,0.00,,---,0.06,VWS V14.01,2013-11-29 05:47:00,
2013-11-28 23:52:00,5.4,2.1,28.31,NE,36,0.0,0.0,86,0.00,,---,0.06,VWS V14.01,2013-11-29 05:52:00,
2013-11-28 23:58:00,5.4,2.4,28.31,NE,36,0.0,0.0,87,0.00,,---,0.06,VWS V14.01,2013-11-29 05:58:00,